Tracking 29892 objects as of 21-Nov-2024
HD Live streaming from Space Station
objects crossing your sky now

STARLINK-4690

Track STARLINK-4690 now!
10-day predictions
STARLINK-4690 is classified as:


NORAD ID: 53604
Int'l Code: 2022-104S
Perigee: 545.9 km
Apogee: 547.9 km
Inclination: 53.2 °
Period: 95.4 minutes
Semi major axis: 6917 km
RCS: Unknown
Launch date: August 28, 2022
Source: United States (US)
Launch site: AIR FORCE EASTERN TEST RANGE (AFETR)
Your satellite tracking list
Your tracking list is empty




NASA's NSSDC Master Catalog

Two Line Element Set (TLE):
1 53604U 22104S   24325.05672344  .00000425  00000-0  44820-4 0  9997
2 53604  53.2182 209.6905 0001425  98.0615 262.0539 15.08837020124034
Source of the keplerian elements: AFSPC